Regional Weather Roundup
Issued by NWS San Diego, CA

Home | Current Version | Previous Version | Text Only | Print | Product List | Glossary On
Versions: 1 2 3 4 5 6 7 8 9 10 11 12 13 14 15 16 17 18 19 20 21 22 23 24 25 26 27 28 29 30 31 32 33 34 35 36 37 38 39 40 41 42 43 44 45 46 47 48 49 50
000
ASUS46 KSGX 222211
RWRSGX
SAN DIEGO HOURLY WEATHER ROUNDUP
NATIONAL WEATHER SERVICE SAN DIEGO CA
300 PM PDT SUN OCT 22 2017

NOTE: "FAIR" INDICATES FEW OR NO CLOUDS BELOW 12,000 FEET WITH NO
SIGNIFICANT WEATHER AND/OR OBSTRUCTIONS TO VISIBILITY.

CAZ042-043-060-061-PZZ750-775-222300-

GREATER SAN DIEGO AREA

CITY           SKY/WX    TMP DP  RH WIND       PRES   REMARKS
SAN DIEGO AP   MOSUNNY   82  42  24 NW10      30.04F
NATIONAL CITY    N/A     84  53  34 W1        30.05F
CHULA VISTA      N/A     87  53  30 W1        29.95F
IMPERIAL BEACH SUNNY    N/A N/A N/A MISG      30.04F
BROWN FIELD    SUNNY     89  33  13 W8        30.04F
MIRAMAR MCAS   SUNNY     92  40  16 NW10      30.05F
MONTGOMERY FLD SUNNY     92  35  13 NW8       30.05F
GILLESPIE FLD  SUNNY     93  30  10 W12       30.04F

$$

NORTH SAN DIEGO COUNTY

CITY           SKY/WX    TMP DP  RH WIND       PRES   REMARKS
CAMP PENDLETON SUNNY     89  34  14 SW8       30.03F
OCEANSIDE AP   SUNNY     85  45  24 W9        30.03F
OCEANSIDE HBR    N/A     73  66  79 SW3       30.07F
VISTA            N/A     85  42  21 W3        30.02F
CARLSBAD       SUNNY     82  35  18 W8        30.04F
DEL MAR          N/A     80  55  41 CALM      30.06F
LA JOLLA SCRIP   N/A     74  65  74 NW2       30.04F
FALLBROOK        N/A     91  33  13 SW3       30.04F
ESCONDIDO        N/A     88  46  23 W5        30.05F
SAN MARCOS       N/A     86  44  22 W7        30.07F
POWAY            N/A     92  46  19 CALM      30.05F

$$

EAST SAN DIEGO COUNTY

CITY           SKY/WX    TMP DP  RH WIND       PRES   REMARKS
RAMONA         SUNNY     94  18   6 E15G22    30.08F
SANTEE LAKES     N/A     93  42  17 W1        30.02F
LA MESA          N/A     90  39  17 NW8       29.98F
JAMUL            N/A     92  35  13 CALM      30.04F
DESCANSO N       N/A     80  25  13 E16       30.02F
CAMPO            N/A     82  12   7 NE16G26   30.14F

$$

ORANGE COUNTY AND THE LOS ANGELES BASIN

CITY           SKY/WX    TMP DP  RH WIND       PRES   REMARKS
JOHN WAYNE AP  SUNNY     87  49  26 SW10      30.04F
LAGUNA BEACH     N/A     80  60  51 S6        30.00F
LAKE FOREST FR   N/A     93  31  11 W3        29.91F
HUNTINGTON BCH   N/A     84  56  38 SW5       30.05F
FULLERTON      SUNNY     96  30   9 NW7       30.02F
LONG BEACH     SUNNY     94  31  10 W8        30.04F
L.A. AP        MOSUNNY   83  34  17 W12       30.06F
L.A. DOWNTOWN  SUNNY     92  39  15 CALM      30.04F

$$

THE INLAND EMPIRE

CITY           SKY/WX    TMP DP  RH WIND       PRES   REMARKS
CORONA         SUNNY     96  29   9 E10       30.06F
CHINO          SUNNY     95  38  13 NW3       30.07F
ONTARIO        SUNNY     94  23   8 VRB5      30.08F
RIVERSIDE AP   SUNNY     94  28   9 N10G17    30.08F
MORENO VALLEY    N/A     94  32  11 SW1       28.22F
MARCH ARB      SUNNY     92  20   7 NE5       30.11F
HORSETHIEF CYN   N/A     91  22   8 NE5       30.07F
PERRIS           N/A     90  31  12 S6          N/A
HEMET EAST       N/A     58  52  82 CALM      29.96S
FRENCH VALLEY  FAIR      93  25   8 NW5       30.09F
TEMECULA         N/A     92  29  10 W1        30.09F

$$

SAN BERNARDINO AND RIVERSIDE COUNTY MOUNTAINS

CITY           SKY/WX    TMP DP  RH WIND       PRES   REMARKS
BIG BEAR AP    SUNNY     68  19  15 NE8       30.44F
ANGELUS OAKS     N/A     74  34  23 CALM      30.10F

$$

SOUTHERN DESERT INCLUDING THE COACHELLA VALLEY

CITY           SKY/WX    TMP DP  RH WIND       PRES   REMARKS
PALM SPRINGS   SUNNY     93  19   7 W3        30.12F
THOUSAND PALMS   N/A     92  25   9 N3        30.08F
PALM DESERT      N/A     97  26   8 CALM      31.66S
THERMAL        SUNNY     94  17   6 NW3       30.06F
BLYTHE         SUNNY     90  13   6 N14       30.11F
IMPERIAL AP    SUNNY     90  19   7 NE6       30.08F
EL CENTRO NAS  SUNNY     90   9   5 NW5       30.11F
YUMA AZ        SUNNY     91  18   7 N10       30.07F

$$

UPPER DESERT

CITY           SKY/WX    TMP DP  RH WIND       PRES   REMARKS
VICTORVILLE AP SUNNY     81  21  11 N12G17    30.27F
HESPERIA         N/A     81  27  14 N5        30.34F
PALMDALE       SUNNY     82  23  11 NE13      30.26F
LANCASTER      SUNNY     81  23  11 NE17      30.25F
EDWARDS AFB    MOSUNNY   81  22  11 NE7       30.23F
DAGGETT        SUNNY     82  25  12 VRB3      30.24F
29 PALMS N     SUNNY     85  18   8 N5        30.28F
NEEDLES        SUNNY     91  20   7 N8        30.14F

$$

REGIONAL REPORTS

CITY           SKY/WX    TMP DP  RH WIND       PRES   REMARKS
SANTA BARBARA  SUNNY     80  38  22 VRB5      30.07F
SANDBERG       SUNNY     75  23  14 E16       30.35S
LAS VEGAS NV   SUNNY     81  27  14 CALM      30.25F
PHOENIX AZ     SUNNY     91  23   8 SW8       30.07F
ENSENADA NW      N/A     76  32  20 CALM      30.02F

$$

OFFSHORE ISLANDS

CITY           SKY/WX    TMP DP  RH WIND       PRES   REMARKS
CATALINA ARPT  SUNNY     83  29  14 NW6       30.14F
SAN NICOLAS IS SUNNY     84 -34   1 NW7       30.09F

$$

MARINE AND OFFSHORE BUOY REPORTS

STATION/POSITION SKY/WX   TEMP    WIND        PRES    VSBY  SWELL
                          AIR SEA DIR/SP/G                  HT/PER/DIR
                          (F)     (DEG/KT/KT) (MB)    (MI)  (FT/S/D)
TANNER BANKS               65 65  310/  8/ 10 1018.7F         8/320/14
S CLEMENTE BASIN           71 71  290/  6/  6 1017.8F         7/280/12
SAN NICOLAS IS.               62                N/A           7/310/13
SO. S. ROSA ISLA           62 60  300/ 16/ 17 1018.6F         8/300/14
W. S. BARBARA CH           60 56  300/ 14/ 17 1018.2
M. S. BARBARA CH           65 64  270/  6/  8 1019.3
S. MONICA BASIN               69  250/  4/  6 1018.1
S PEDRO CHANNEL               68                N/A           3/260/13
CMP PENDLETON NS              69                N/A           3/210/18
OCEANSIDE OFFSHR              71                N/A           3/180/18
TORREY PINES OTR              70                N/A           3/190/18
SAN DIEGO BAY                 73              1017.6F
POINT LOMA SOUTH              70                N/A           5/280/13

$$





USA.gov is the U.S. government's official web portal to all federal, state and local government web resources and services.